EW3708 Weather Reports


time (UTC)temp
F
wind
direction
speed
knots
gust
knots
rain 1hr
in
rain 24hr
in
rain mn
in
humidity
%
barometer
mb
20211025044500 48 131 0.0 1.7 0.00 0.15 0.00 98 1017.4
20211025043242 48 147 0.0 1.7 0.00 0.15 0.00 97 1017.8
20211025041732 48 108 0.0 2.6 0.01 0.15 0.00 97 1018.2
20211025040126 47 119 0.0 1.7 0.01 0.15 0.00 97 1018.6
20211025034556 47 119 0.0 1.7 0.01 0.15 0.15 97 1018.8
20211025033133 47 98 0.0 1.7 0.02 0.15 0.15 97 1019.0
20211025031613 47 98 0.0 0.9 0.03 0.14 0.14 97 1019.3
20211025030243 47 98 0.0 2.6 0.03 0.14 0.14 97 1019.4
20211025024606 47 100 0.0 2.6 0.03 0.13 0.13 97 1019.6
20211025023213 47 154 0.0 0.9 0.03 0.12 0.12 97 1019.8
20211025021636 47 154 0.0 1.7 0.04 0.11 0.11 96 1019.7
20211025020112 47 154 0.0 1.7 0.04 0.11 0.11 96 1019.9
20211025014623 47 128 0.0 1.7 0.04 0.10 0.10 96 1020.0
20211025013107 47 123 0.0 1.7 0.03 0.09 0.09 96 1019.9
20211025011613 47 127 0.0 0.9 0.01 0.07 0.07 96 1020.3
20211025010105 47 127 0.0 0.9 0.01 0.07 0.07 95 1020.1
20211025004554 46 127 0.0 1.7 0.00 0.06 0.06 95 1019.8
20211025003044 46 139 0.0 0.9 0.00 0.06 0.06 95 1019.9
20211025001645 46 139 0.0 0.9 0.00 0.06 0.06 94 1020.1
20211025000053 46 139 0.0 0.0 0.00 0.06 0.06 94 1020.3
20211024234556 46 139 0.0 0.9 0.00 0.06 0.06 93 1020.7
20211024233048 47 139 0.0 0.9 0.00 0.06 0.06 93 1020.3
20211024231610 47 139 0.0 0.9 0.00 0.06 0.06 93 1019.9
20211024230040 47 139 0.0 0.9 0.00 0.06 0.06 92 1020.2
20211024224623 47 139 0.0 1.7 0.00 0.07 0.06 92 1020.1
20211024223101 47 140 0.0 0.9 0.00 0.07 0.06 92 1020.4
20211024221623 47 140 0.0 0.9 0.00 0.07 0.06 92 1020.3
20211024220055 47 140 0.0 0.9 0.00 0.07 0.06 91 1020.3
20211024214539 47 140 0.0 1.7 0.00 0.09 0.06 91 1020.3
20211024213029 47 140 0.9 1.7 0.00 0.09 0.06 91 1020.2
20211024211708 47 138 0.0 2.6 0.00 0.09 0.06 91 1020.3
20211024210051 47 156 0.0 1.7 0.00 0.09 0.06 91 1020.5
20211024204541 47 156 0.9 2.6 0.00 0.12 0.06 91 1020.4
20211024203025 47 157 0.0 1.7 0.00 0.12 0.06 92 1020.6
20211024201546 47 157 0.9 1.7 0.00 0.12 0.06 92 1020.7
20211024200041 47 157 0.0 0.9 0.00 0.12 0.06 93 1020.7
20211024194533 47 157 0.0 1.7 0.00 0.12 0.06 93 1020.6
20211024193015 47 157 0.0 2.6 0.00 0.12 0.06 94 1020.7
20211024191538 47 163 0.0 1.7 0.00 0.12 0.06 95 1020.7
20211024190015 47 162 0.0 1.7 0.00 0.12 0.06 97 1020.8
20211024183021 46 182 0.0 0.9 0.00 0.12 0.06 97 1021.2
20211024181537 46 182 0.0 1.7 0.00 0.12 0.06 97 1021.2
20211024180009 46 182 0.9 2.6 0.00 0.12 0.06 98 1021.5
20211024174611 46 173 0.0 1.7 0.00 0.12 0.06 98 1021.5
20211024173007 46 161 0.0 1.7 0.00 0.12 0.06 98 1021.5
20211024171515 46 161 0.0 1.7 0.00 0.12 0.06 98 1021.9
20211024170008 46 161 0.0 1.7 0.00 0.12 0.06 98 1021.9
20211024164504 46 161 0.9 2.6 0.00 0.12 0.06 98 1022.4
20211024163032 45 162 0.0 0.9 0.06 0.12 0.06 98 1022.5
20211024161510 46 163 0.9 2.6 0.06 0.12 0.06 98 1022.5
20211024160003 46 186 0.9 1.7 0.06 0.12 0.06 99 1022.5
20211024154708 45 185 0.9 1.7 0.06 0.12 0.06 98 1022.1
20211024151635 45 189 0.0 0.9 0.00 0.06 0.00 98 1022.1
20211024143120 43 189 0.0 0.9 0.00 0.06 0.00 98 1021.9
20211024141642 42 189 0.0 0.9 0.00 0.06 0.00 98 1022.1
20211024140201 42 190 0.0 0.9 0.00 0.06 0.00 98 1022.2
20211024134617 42 190 0.0 0.9 0.00 0.06 0.00 98 1022.1
20211024133058 41 188 0.0 0.9 0.00 0.06 0.00 98 1021.9
20211024131605 41 188 0.0 0.9 0.00 0.06 0.00 98 1022.0
20211024130107 41 188 0.0 1.7 0.00 0.06 0.00 98 1022.2
20211024124554 40 188 0.0 0.9 0.00 0.07 0.00 98 1022.0
20211024123100 40 188 0.0 0.9 0.00 0.07 0.00 98 1021.6
20211024121540 39 188 0.0 0.9 0.00 0.07 0.00 98 1021.4
20211024120133 39 188 0.0 0.9 0.00 0.07 0.00 98 1021.5
20211024114627 39 187 0.0 0.9 0.00 0.07 0.00 98 1021.5
20211024113033 39 187 0.0 1.7 0.00 0.07 0.00 98 1021.3
20211024111528 40 282 0.0 0.9 0.00 0.07 0.00 98 1020.8
20211024110028 40 282 0.0 1.7 0.00 0.07 0.00 98 1020.6
20211024104550 40 282 0.0 0.9 0.00 0.07 0.00 98 1020.2
20211024103110 40 282 0.0 0.9 0.00 0.07 0.00 98 1020.2
20211024101552 40 282 0.0 0.9 0.00 0.07 0.00 98 1020.1
20211024100029 40 282 0.0 0.9 0.00 0.07 0.00 98 1020.0
20211024094523 41 282 0.0 1.7 0.00 0.07 0.00 98 1020.0
20211024093103 41 283 0.0 1.7 0.00 0.07 0.00 98 1019.9
20211024091534 41 321 0.0 0.9 0.00 0.07 0.00 98 1019.8
20211024090014 41 321 0.0 1.7 0.00 0.07 0.00 98 1019.5
20211024084531 41 320 0.0 1.7 0.00 0.07 0.00 98 1019.5
20211024083110 42 272 0.0 2.6 0.00 0.07 0.00 98 1019.4
20211024081542 42 238 0.0 1.7 0.00 0.07 0.00 98 1019.3
20211024080019 42 254 0.0 1.7 0.00 0.07 0.00 98 1019.1
20211024074509 42 293 0.0 1.7 0.00 0.07 0.00 98 1019.1
20211024073019 42 261 0.0 0.9 0.00 0.07 0.00 98 1019.1
20211024071513 42 261 0.9 2.6 0.00 0.07 0.00 98 1019.0
20211024070005 41 349 0.0 1.7 0.00 0.07 0.00 98 1018.9
20211024064506 41 325 0.0 1.7 0.00 0.07 0.00 98 1018.9
20211024063001 40 320 0.0 1.7 0.00 0.07 0.00 97 1018.8
20211024060108 40 320 0.0 0.9 0.00 0.07 0.00 97 1018.6
20211024054632 40 320 0.0 0.9 0.00 0.07 0.00 97 1018.3
20211024053122 39 320 0.0 0.9 0.00 0.07 0.00 97 1018.2
20211024051743 39 320 0.0 0.9 0.00 0.07 0.00 97 1018.0
20211024050210 40 320 0.0 0.0 0.00 0.07 0.00 97 1018.1